COSMOS 928

导读 | 星芒AI

COSMOS 928 是苏联于1977年发射的一颗军用侦察卫星,属于“宇宙”系列。该卫星主要用于电子侦察和信号情报收集,旨在监视敌方通信和雷达信号。其具体任务细节和轨道参数未公开,但据推测运行在近地轨道。COSMOS 928 在苏联冷战时期的太空监视体系中发挥了重要作用,体现了当时苏联在空间侦察技术方面的实力。该卫星最终失去联系并成为太空垃圾,目前仍在轨道上运行。

基本信息
目录编号:
10141
目录名称:
COSMOS 928
国际标识:
1977-064A
轨道中心:
EARTH
卫星名称:
COSMOS 928
卫星全名:
--
卫星状态:
在轨 (已飞行17640 天)
发射日期:
1977-07-13 UTC
国别 :
俄罗斯(独联体) (CIS)
星等 :
--
轨道信息
数据来源 国际轨道数据 AOE轨道数据
星历时间 2025-10-28T19:43:03+0800
19小时前
查看轨道信息
2025-10-28T18:00:00+0800
20小时前
查看轨道信息
半长轴 7353.116km 7353.119km
偏心率 0.0036535 0.0036708
轨道倾角 82.964° 82.964°
近地点辐角 295.077° 294.800°
升交点赤经 309.601° 309.653°
平近点角 64.660° 70.406°
近地点 948.116km 947.992km
远地点 1001.846km 1001.976km
周期 104.584分钟 104.584分钟
每日圈数 13.768788 13.768778
详细信息
使用方式:
暂无
2D轨道图
3D轨道图
轨道高度分析图
轨道倾角分析图
轨道综合分析图
查看轨道综合分析图